Wind_Speed
66 65 67 70 62 51 52 55 56 57 56 55 53 51 49 48 46 44 43 42 40 37 33 30 27 24 23 23 24 27 28 30 34 36 40 41 39 38 38 38 38 36 34 33 32 32 34 31 29 28 23 22 23 22 22 21 23 25 22 21 22 19 11 7 9 12 10 9 9 9 8 11 15 16 16 15 16 16 16 16 15 15 14 14 14 15 15 15
68 67 66 70 67 58 55 55 57 59 58 56 54 51 49 49 47 44 43 41 40 37 34 31 27 24 23 22 24 26 28 29 34 36 37 39 39 38 38 38 37 37 36 35 34 33 34 31 29 29 25 22 23 23 23 23 24 26 24 22 21 19 13 7 8 13 13 11 9 8 8 10 12 14 15 15 16 16 16 17 16 16 15 14 15 15 15 15
69 68 65 68 70 65 58 55 56 58 59 57 55 52 49 50 48 45 44 41 40 37 34 31 28 24 22 22 23 26 27 29 34 35 34 38 38 37 36 37 37 37 37 37 36 35 35 32 29 30 27 22 23 24 24 24 24 25 25 22 20 18 14 11 10 11 11 12 11 10 10 11 13 14 15 15 15 15 16 16 16 15 15 14 15 15 15 16
68 67 63 65 68 66 62 57 56 56 58 57 55 53 50 50 48 46 45 41 39 38 35 31 28 24 21 21 23 25 26 29 35 33 32 37 38 36 36 35 36 36 36 37 36 35 35 33 30 31 29 22 23 26 25 25 23 23 25 23 19 17 14 12 12 12 11 11 12 13 12 13 15 16 16 16 16 16 16 16 15 14 14 14 14 15 15 15
67 65 61 63 65 66 65 61 57 55 56 57 56 53 50 50 47 46 45 42 40 38 35 32 27 23 21 21 23 26 27 31 35 32 32 36 37 37 37 36 36 35 35 36 35 34 33 33 32 33 30 21 22 26 26 26 24 20 23 21 15 15 15 14 15 14 15 14 12 14 13 13 15 16 17 18 17 16 15 16 16 15 14 14 14 15 15 16
67 64 61 61 61 63 63 61 58 54 55 57 55 53 51 51 48 46 45 42 40 39 35 31 27 24 22 21 23 26 30 30 28 32 35 36 37 38 38 38 37 36 36 35 34 33 31 31 33 35 32 21 21 26 25 25 25 20 21 22 15 11 13 14 15 16 16 15 14 14 14 13 14 15 16 17 16 16 16 16 15 15 14 15 16 15 16 16
63 63 63 61 58 59 61 61 58 55 56 55 54 53 51 51 50 47 45 43 41 39 35 31 28 25 22 22 24 27 30 27 22 28 35 37 39 40 40 39 38 37 36 34 33 32 31 30 32 37 35 22 19 24 24 24 24 23 22 23 19 12 10 11 13 15 14 14 14 14 13 13 14 15 16 17 17 17 17 17 16 16 16 15 15 15 16 16
62 60 64 62 58 59 62 62 58 56 56 56 55 53 52 52 52 49 47 44 41 39 35 31 28 25 23 23 25 27 28 26 21 21 27 35 37 38 38 38 38 38 36 34 32 29 30 32 32 38 36 22 19 23 23 21 23 26 23 23 25 16 10 10 11 13 13 13 14 13 12 13 15 16 17 17 18 18 17 16 17 17 16 16 15 15 16 17
61 59 62 61 58 61 63 61 57 54 55 56 56 53 51 52 51 51 49 45 42 39 35 31 29 26 24 23 25 28 25 25 22 16 20 28 31 32 33 33 35 38 37 36 33 28 30 33 32 39 37 23 22 23 19 18 21 26 25 22 25 22 15 12 12 13 13 13 13 13 12 13 14 16 17 18 18 18 17 16 15 15 16 16 16 16 16 17
60 59 61 60 57 61 64 63 59 56 55 54 53 51 48 49 50 51 50 47 44 39 35 32 30 27 25 25 27 27 24 26 26 18 16 19 22 25 28 30 32 34 37 36 34 31 32 33 33 40 38 24 22 21 14 15 18 22 25 22 21 21 19 17 14 15 14 13 13 13 13 12 14 15 16 18 19 18 17 15 14 14 15 17 17 16 16 17
62 59 60 62 60 62 64 65 63 58 58 54 50 50 47 47 49 51 51 48 44 39 36 33 31 28 26 26 28 25 24 28 29 20 13 14 17 20 23 27 29 31 34 33 32 32 33 33 34 39 36 26 23 19 13 14 16 19 24 25 20 17 19 20 17 16 15 14 15 14 13 13 15 15 16 17 17 16 16 15 14 14 15 17 18 16 17 17
63 61 60 64 61 60 60 63 64 59 58 54 49 50 47 46 48 50 50 48 44 40 36 34 31 29 27 27 26 24 25 27 25 19 15 13 13 15 20 25 27 30 32 30 30 32 34 33 35 37 33 27 26 18 12 14 16 19 21 25 25 18 17 20 19 18 17 16 16 15 13 15 17 15 14 15 14 14 15 15 15 15 15 16 18 18 17 18
60 61 63 66 60 53 53 58 60 57 54 51 49 49 47 45 46 48 48 47 45 41 38 35 32 29 28 29 27 26 27 26 23 19 16 13 10 12 18 25 27 28 29 29 30 30 34 35 35 35 30 25 27 19 13 15 17 19 19 23 25 23 20 19 20 19 18 18 17 16 15 17 16 13 12 14 14 15 15 15 16 16 16 17 18 18 17 18
57 58 63 69 60 49 49 53 54 52 50 49 49 49 47 46 46 47 48 46 45 42 39 36 33 31 30 30 29 28 29 27 24 20 16 13 12 11 13 21 27 29 29 28 27 28 35 35 33 35 32 26 26 18 14 16 17 20 19 20 23 25 23 20 20 21 19 19 18 17 18 18 13 11 13 14 14 15 15 15 16 16 16 17 18 18 18 18
57 58 61 65 63 55 51 51 49 48 49 47 47 47 46 46 45 46 46 46 45 43 40 36 34 33 33 33 32 30 30 28 25 20 18 15 13 12 10 14 21 27 29 28 26 27 34 34 32 37 36 26 21 16 15 16 17 22 22 20 22 23 23 21 21 21 20 19 19 18 17 16 12 11 14 16 14 14 14 14 15 16 17 17 18 17 17 18
55 58 61 59 63 64 56 50 48 47 46 44 45 45 43 44 43 43 45 46 46 44 41 38 37 36 34 34 32 32 32 29 26 22 20 17 14 13 12 12 17 24 28 27 27 28 32 31 31 38 38 27 20 16 15 16 18 23 26 22 20 22 22 22 22 21 21 20 19 20 15 13 14 13 13 13 14 14 15 15 15 16 17 17 17 17 18 18
53 56 63 57 56 63 58 50 48 45 43 43 44 43 42 41 39 41 43 46 47 45 42 40 38 36 32 31 30 32 34 29 26 24 21 17 15 15 14 14 17 22 25 26 27 29 30 30 33 39 39 29 21 16 16 20 22 22 25 24 19 20 22 22 23 23 23 22 21 21 19 15 14 15 14 13 13 14 15 15 15 15 17 17 18 18 18 19
55 57 68 61 53 58 56 50 48 45 44 43 43 42 41 39 38 39 41 46 50 46 43 41 39 36 31 32 30 30 32 29 25 23 20 18 17 16 15 14 17 21 24 27 29 30 32 32 36 40 38 31 23 22 23 24 25 21 20 23 19 17 21 22 22 23 24 25 23 24 23 19 17 16 16 15 15 15 15 14 15 16 17 17 18 19 18 19
57 61 68 63 56 56 53 50 49 48 47 45 42 41 40 38 37 37 40 49 54 51 47 45 45 42 35 33 31 28 29 29 25 23 21 19 19 18 16 14 16 18 21 28 32 33 34 33 38 42 40 36 28 26 27 21 20 19 16 21 22 17 18 20 20 20 21 24 26 26 25 22 21 20 17 16 16 15 14 15 17 18 19 18 18 19 19 19
61 64 64 62 61 57 52 52 50 49 49 48 47 45 46 44 42 41 45 51 54 52 51 50 49 44 35 32 33 30 30 30 26 24 21 19 20 20 17 16 16 16 19 28 33 34 34 36 42 46 43 38 29 24 24 18 12 14 14 18 24 21 17 18 19 20 21 23 25 26 26 25 24 24 21 19 18 18 18 18 18 18 19 19 19 19 20 19
65 68 62 60 62 57 52 52 50 50 50 50 52 53 55 54 54 55 55 55 53 52 51 47 46 43 32 27 31 31 31 32 26 23 22 22 22 21 20 20 19 18 19 24 29 30 33 38 43 44 40 33 27 23 21 20 15 12 14 15 23 25 19 18 20 23 23 23 24 23 25 27 25 25 24 24 25 24 23 22 20 19 20 20 20 20 20 20
66 69 64 59 59 55 50 49 49 49 48 48 49 51 54 55 59 61 61 60 57 55 53 45 42 43 34 22 24 29 30 32 29 25 25 24 25 24 23 24 21 19 20 22 26 30 31 37 39 36 33 26 22 22 20 22 21 15 15 16 21 26 22 20 21 23 24 22 21 21 23 25 24 24 24 26 28 27 26 25 21 20 21 22 22 21 20 21
66 67 66 60 55 51 48 47 47 47 47 47 47 49 50 51 55 55 56 58 54 48 49 46 42 43 38 27 25 30 32 31 30 29 27 26 26 26 26 26 22 21 24 26 30 32 30 31 32 29 25 21 20 20 19 21 24 20 18 16 18 25 25 24 24 22 23 22 21 22 24 26 26 25 27 27 28 28 26 25 23 22 22 23 23 22 21 22
67 65 63 57 51 48 48 46 45 45 45 46 46 48 49 49 52 50 51 54 48 40 38 39 41 40 37 31 27 31 33 31 29 28 28 27 27 27 28 26 23 24 26 27 28 29 25 20 25 27 22 21 21 20 19 21 24 23 21 15 14 23 27 26 26 23 22 23 23 24 24 30 32 29 29 28 27 30 28 26 25 23 24 24 24 23 23 23
62 60 55 52 49 48 47 45 46 45 45 45 45 47 46 49 51 44 46 50 43 35 31 33 37 35 33 29 25 27 31 30 26 25 26 27 27 27 29 26 24 26 26 26 24 24 21 13 19 28 23 22 23 23 21 19 23 24 24 18 11 15 22 23 23 21 20 21 23 21 17 22 30 30 30 29 28 30 29 28 27 23 23 24 25 25 24 23
57 54 51 49 49 49 47 47 47 45 45 45 45 46 45 48 47 41 45 45 35 34 35 36 37 33 30 28 25 23 26 29 27 26 26 27 28 26 28 29 26 26 24 24 23 20 20 16 19 27 22 21 23 25 22 16 20 24 25 21 13 10 13 16 19 18 16 17 18 20 17 16 23 24 22 24 28 30 29 28 27 24 23 24 25 25 24 24
55 51 49 49 49 50 50 49 47 47 47 47 47 48 47 47 44 42 41 26 22 35 40 39 39 35 31 29 28 27 27 30 31 32 31 30 32 29 28 31 29 25 22 23 24 21 20 19 22 26 22 22 24 26 24 18 19 23 23 21 16 12 11 12 16 17 16 16 14 18 21 19 24 25 17 16 21 24 28 29 27 25 25 24 25 25 25 25
53 50 50 50 49 49 49 48 49 49 48 48 49 49 49 47 43 46 36 10 12 37 41 41 41 37 33 31 33 35 31 30 32 37 37 33 35 32 30 30 28 27 25 26 28 22 19 20 23 25 23 23 26 25 23 20 20 21 20 19 16 14 13 13 13 15 17 16 13 16 19 14 20 28 22 18 20 21 23 25 25 25 24 24 24 24 25 26
51 50 50 50 50 48 46 46 49 49 46 48 49 48 49 47 44 42 27 7 16 36 40 42 43 38 36 35 35 38 35 30 31 36 39 37 36 33 31 30 26 26 27 27 27 21 17 21 21 23 24 23 24 22 21 23 22 21 19 16 13 12 14 14 12 14 15 13 14 18 20 12 13 25 25 21 24 24 23 22 20 19 20 22 23 24 26 27
49 49 50 52 53 51 49 47 46 47 47 48 48 50 49 47 44 30 12 11 23 32 36 42 44 41 42 41 38 37 37 33 32 37 42 41 38 33 30 29 28 28 29 27 26 22 19 21 22 22 23 22 21 20 22 23 22 22 20 17 13 12 16 15 14 15 10 9 16 20 22 16 9 16 21 23 25 24 23 22 19 17 18 20 22 23 25 26
47 48 50 54 54 52 53 52 50 48 47 48 50 53 51 45 39 19 6 19 27 28 37 43 44 44 45 46 42 38 38 35 34 39 45 45 40 37 33 32 32 30 29 31 29 26 23 23 25 24 23 22 22 22 22 21 21 20 21 20 15 11 13 12 11 12 7 5 12 17 20 20 14 11 10 14 20 20 20 20 18 18 19 20 21 22 23 25
47 48 52 55 53 53 54 53 55 53 50 52 52 54 52 38 24 12 12 23 24 28 41 45 48 49 47 48 44 41 39 36 35 40 47 49 44 41 38 36 38 31 27 33 32 28 26 26 28 26 24 23 23 24 22 21 22 21 21 23 17 7 5 7 5 6 7 5 7 12 15 18 22 22 14 9 12 15 17 17 16 17 19 19 20 20 21 22
48 50 53 54 53 54 53 51 55 56 56 59 56 56 49 28 16 20 26 26 23 32 42 44 50 51 48 47 43 41 40 36 36 39 44 49 45 43 41 37 40 36 31 34 34 29 24 25 31 30 28 27 26 27 26 23 24 24 25 25 19 6 4 3 3 1 5 7 8 10 10 12 18 22 23 20 17 18 20 18 15 15 16 17 19 20 21 22
49 52 54 55 54 54 51 51 55 57 59 60 59 54 38 21 23 33 35 29 24 31 40 43 48 49 47 47 44 43 40 33 35 38 41 47 46 45 45 41 40 39 35 34 34 32 23 19 29 33 30 29 30 29 26 24 23 24 25 24 22 15 6 4 5 4 4 6 9 11 7 7 9 10 16 19 19 22 25 23 19 16 14 15 17 18 20 22
49 52 53 54 54 53 52 53 56 59 60 60 58 49 33 27 36 42 40 34 28 32 40 42 48 49 44 44 44 42 40 34 33 36 40 47 50 49 49 46 43 41 38 33 30 33 27 18 24 31 28 27 29 29 27 24 22 23 24 24 25 24 15 7 6 10 8 4 7 12 11 11 10 8 11 13 15 20 23 24 23 22 20 18 17 17 19 21
51 52 51 52 53 53 54 57 58 60 60 61 56 47 44 42 42 45 45 40 34 38 43 41 44 47 41 40 43 42 41 37 35 37 39 43 48 49 49 48 47 44 41 36 29 29 27 19 21 28 26 23 24 26 29 27 22 21 25 26 25 23 17 8 5 8 7 3 5 12 16 19 16 13 15 15 14 15 16 17 19 21 24 24 22 19 19 20
55 55 51 52 53 53 57 59 60 61 61 61 56 51 52 45 39 43 45 39 34 37 45 43 42 46 44 42 44 45 43 38 37 40 41 41 43 48 51 48 48 47 43 39 32 29 28 20 20 26 26 25 24 22 26 29 24 21 24 27 24 20 18 13 5 2 3 2 5 11 18 22 18 13 14 16 17 16 14 13 14 16 19 22 24 22 21 20
57 55 51 52 54 55 60 60 60 63 63 61 56 50 48 40 35 41 44 40 34 35 44 46 43 46 47 44 44 47 45 40 40 41 40 41 38 44 52 49 46 48 44 39 33 29 28 20 18 24 25 26 27 24 24 27 27 25 24 24 21 15 16 18 9 2 2 2 3 8 15 19 20 16 13 13 15 16 16 18 18 18 16 18 22 24 23 20
56 53 50 54 57 59 63 63 63 65 64 62 54 43 43 43 39 39 42 41 36 35 43 45 43 45 46 45 45 47 46 42 43 41 38 40 34 35 47 49 44 46 44 40 34 29 28 21 17 24 26 25 28 30 31 30 29 28 24 23 24 18 15 20 17 8 5 3 3 4 6 11 19 21 17 15 15 14 16 17 17 18 18 16 17 20 20 18
54 52 52 57 62 64 67 67 67 69 67 65 56 42 42 44 39 36 40 42 38 36 40 43 44 46 45 45 45 47 47 43 43 42 38 39 35 29 39 46 44 44 42 39 34 29 29 26 19 22 25 26 29 32 34 32 30 30 27 25 28 23 15 15 19 17 8 2 3 3 3 9 15 17 19 20 19 18 17 15 13 15 17 15 14 15 17 16
52 52 55 62 67 69 71 69 70 73 67 60 52 42 40 40 36 33 36 41 40 35 35 38 42 46 46 46 45 47 48 43 43 43 39 41 39 33 36 43 43 43 41 40 36 29 28 28 23 22 26 29 30 30 30 29 30 30 29 28 29 28 22 11 10 19 20 12 7 4 3 8 11 13 16 16 17 18 18 15 13 13 14 13 12 14 16 15
53 54 58 66 71 73 74 72 73 71 59 53 51 44 39 38 36 34 34 37 38 34 31 34 38 43 46 48 48 48 49 46 45 45 42 43 44 38 36 39 41 42 41 42 40 32 28 27 24 22 26 29 27 27 28 29 31 32 31 31 31 32 33 22 12 15 21 20 14 7 4 7 9 10 12 13 15 17 16 14 13 13 14 13 13 15 16 15
54 55 59 68 73 74 74 69 67 62 53 53 53 42 37 38 36 36 36 36 37 35 32 33 36 39 43 46 47 48 49 47 47 48 46 43 43 39 35 35 37 40 42 41 40 36 30 27 23 18 19 25 26 27 30 30 32 36 35 35 35 34 36 33 24 19 16 17 16 8 4 12 15 10 8 7 9 10 9 9 9 9 12 13 13 15 15 15
53 55 61 69 73 73 71 66 66 64 56 53 50 40 37 38 36 38 39 37 37 37 35 35 36 37 41 44 45 48 47 43 43 48 46 41 42 40 36 34 33 37 43 43 41 39 31 24 23 16 8 11 16 18 26 33 36 38 38 38 38 35 34 33 31 24 14 15 20 12 8 20 24 17 12 8 7 10 12 14 15 12 12 12 12 14 16 17
52 54 61 69 72 72 69 66 67 66 57 51 48 44 41 38 35 38 39 37 37 37 36 36 36 36 38 41 42 44 47 44 41 45 45 41 39 39 36 33 30 32 38 39 39 40 33 27 29 23 11 9 13 15 24 34 36 34 35 37 38 37 35 33 30 24 16 17 21 18 18 28 30 26 23 20 19 21 21 22 20 16 13 14 14 13 15 17
55 57 63 69 70 71 70 64 60 60 57 53 48 45 43 40 36 36 38 37 37 37 36 35 35 36 37 39 40 41 45 46 40 41 46 44 39 38 37 34 30 29 31 33 36 37 35 33 34 34 30 29 29 25 25 29 32 33 34 35 35 36 37 36 31 28 27 25 26 29 33 36 35 32 30 28 26 25 22 20 18 14 13 16 17 16 16 16
56 60 68 73 69 69 69 63 58 60 62 59 52 47 47 43 40 38 38 38 38 38 38 35 35 38 39 40 42 40 41 45 42 37 41 44 42 38 37 36 33 30 29 31 33 34 34 35 35 38 39 39 36 32 28 27 29 32 33 33 34 34 36 39 36 35 36 29 26 35 41 41 40 37 33 32 28 24 21 19 17 14 12 14 16 17 17 17
57 60 67 72 71 72 75 72 66 64 62 58 50 48 49 46 43 43 42 40 39 39 39 37 36 39 39 40 41 39 37 40 42 39 37 41 44 40 37 36 35 33 31 30 33 34 32 33 35 36 37 36 35 33 32 31 30 30 31 31 32 33 35 39 39 39 40 36 34 39 42 43 42 37 35 35 29 22 19 17 15 13 14 14 16 17 18 18
58 60 66 69 69 73 78 75 67 61 59 55 46 45 51 52 47 47 45 43 42 41 41 40 38 38 38 37 38 39 39 39 42 43 40 38 41 41 38 36 35 35 33 31 33 34 31 31 31 32 33 34 32 31 32 32 31 31 32 31 31 33 34 37 37 36 39 41 42 41 40 43 42 37 37 36 30 25 24 21 18 17 19 19 18 18 20 20
58 61 68 70 67 67 72 71 61 56 56 54 47 44 50 54 51 48 48 48 47 44 44 43 41 39 38 36 36 38 39 38 37 39 39 37 38 40 38 37 37 36 34 32 33 34 33 29 28 30 31 30 31 31 31 31 31 31 32 31 32 33 35 38 40 39 40 43 43 42 45 47 42 38 40 39 35 32 31 27 22 22 24 24 20 19 21 21
58 62 67 71 68 63 67 69 63 56 56 56 52 47 49 53 53 51 49 49 50 49 48 46 41 38 36 36 37 37 35 34 32 31 31 30 31 33 34 35 36 35 35 34 32 34 34 28 26 29 28 26 30 31 30 31 30 28 31 33 35 37 40 42 42 41 41 43 42 44 50 49 40 36 39 40 39 37 34 31 27 26 28 26 21 20 21 21
51 61 66 70 68 61 63 69 64 57 58 62 60 52 49 51 52 50 47 47 48 48 47 45 42 39 37 37 38 36 32 30 28 25 22 20 21 24 27 28 29 29 32 33 33 34 35 31 28 28 26 24 26 27 28 26 20 23 36 42 40 41 41 40 40 40 39 40 41 45 50 46 36 33 35 38 39 38 35 34 31 30 30 28 23 21 21 21
Wind_Direction
206 207 207 207 209 212 206 201 205 208 210 212 213 213 211 214 216 216 216 214 215 218 219 222 222 221 220 222 223 222 222 225 227 222 218 217 218 220 221 222 223 227 231 228 222 220 219 218 216 210 207 208 203 201 205 207 207 203 201 206 212 212 217 232 230 236 233 217 204 200 206 212 215 212 209 208 208 204 198 202 197 193 188 183 186 179 179 181
207 206 208 210 209 211 208 204 206 209 212 213 214 213 211 213 216 216 216 213 214 216 218 221 222 222 220 220 221 221 221 223 226 224 220 218 216 218 221 224 225 225 227 228 224 221 217 214 214 210 208 211 206 201 202 203 204 203 204 209 209 209 223 248 239 236 233 225 214 205 212 211 215 218 214 211 213 210 205 207 203 197 192 185 188 185 185 185
209 207 208 211 211 210 210 207 208 211 213 215 215 213 211 213 215 216 216 213 214 215 216 220 222 222 222 222 218 217 219 224 228 224 219 217 216 216 219 222 224 224 224 224 224 225 219 212 212 209 209 214 209 203 200 201 202 203 207 210 207 208 232 256 237 229 231 227 223 220 219 212 208 214 216 214 213 212 209 213 213 205 196 190 191 190 190 190
210 210 208 211 213 211 211 208 209 212 212 215 216 215 212 213 215 215 215 214 213 214 215 219 221 222 222 223 217 213 217 226 228 222 218 217 214 215 217 220 221 222 223 223 225 226 220 214 212 210 208 213 213 204 200 199 200 204 208 208 208 212 229 246 229 222 236 236 232 231 228 219 211 211 214 216 214 214 211 212 217 213 203 198 197 195 193 194
210 213 211 211 213 213 212 209 209 210 210 213 215 216 215 214 215 214 214 214 212 212 214 217 220 221 222 221 216 211 213 225 226 219 217 216 213 214 215 217 220 222 224 225 225 221 218 213 213 212 204 209 216 206 200 198 199 205 207 204 205 217 228 238 228 223 234 239 237 235 235 227 220 216 216 219 218 217 216 212 215 216 207 203 203 200 198 198
211 214 213 211 213 212 210 209 209 210 210 211 212 214 215 215 215 213 214 213 211 211 212 215 218 219 221 220 216 213 213 221 225 220 218 214 211 213 214 217 220 223 225 226 223 217 215 212 212 212 202 203 217 206 197 198 201 203 202 200 196 205 224 233 228 226 233 239 242 239 236 232 228 223 220 222 221 219 218 213 213 218 213 206 206 204 201 202
214 213 212 211 212 210 208 209 210 212 211 210 212 214 215 217 217 214 213 213 211 210 211 213 217 218 220 219 214 215 216 217 222 223 219 212 211 213 215 221 223 223 224 226 224 217 217 213 211 211 200 197 215 205 197 199 203 204 199 199 199 198 216 230 231 233 241 242 241 240 238 235 229 224 221 224 225 222 221 216 211 214 216 213 211 209 205 204
216 212 211 211 210 208 207 209 211 213 214 214 216 217 216 218 218 216 213 212 210 209 209 212 215 216 218 219 215 216 214 207 211 217 213 210 213 216 219 225 225 223 224 226 225 221 221 216 211 209 198 193 208 200 195 201 207 207 200 200 205 205 209 227 233 232 238 238 236 237 235 231 226 222 223 226 229 229 227 223 216 213 214 216 214 213 210 209
215 212 209 210 210 207 206 208 210 211 213 215 217 217 215 216 217 217 214 213 210 207 208 211 214 214 214 215 214 217 210 198 202 198 192 204 215 221 225 229 228 226 225 227 227 225 223 217 213 207 194 188 204 197 190 204 213 210 202 200 209 214 215 224 232 229 229 230 232 234 233 230 225 223 223 226 229 231 231 229 226 220 216 216 217 214 212 213
213 213 208 205 208 207 205 207 208 208 211 212 212 212 212 214 215 215 214 212 209 206 206 211 213 212 212 210 211 213 203 197 201 186 178 201 217 224 228 229 229 229 228 229 229 227 221 216 215 207 190 183 200 196 190 206 215 215 209 205 211 218 221 225 228 229 228 226 229 233 232 229 225 222 222 225 226 229 232 231 230 227 221 219 220 217 214 215
210 211 207 201 205 206 205 208 207 205 208 208 207 209 211 213 213 212 212 210 207 204 205 210 212 211 210 210 212 207 194 197 201 195 198 217 224 229 230 227 225 227 228 229 227 221 216 214 216 205 185 179 194 193 189 200 211 218 214 212 213 215 218 222 225 226 226 223 226 231 230 226 226 223 222 227 226 225 230 231 227 224 222 221 223 220 214 215
206 209 206 200 204 205 200 203 208 205 205 205 203 206 210 212 213 211 209 208 205 202 204 209 210 208 209 210 211 200 185 189 195 194 202 208 215 221 219 220 221 223 225 227 223 215 210 216 219 202 181 180 191 192 185 192 207 214 216 217 220 221 217 217 220 223 222 221 225 226 224 226 229 225 221 227 226 222 224 227 225 221 218 218 222 222 216 215
204 206 204 199 200 201 193 194 203 203 200 201 201 205 211 213 214 211 207 205 203 201 203 208 208 205 207 208 205 192 178 179 184 183 184 184 190 201 207 213 216 219 220 223 222 214 209 219 224 200 177 181 192 195 192 191 203 207 212 219 221 225 222 214 213 219 220 218 222 221 222 230 231 225 224 227 225 221 222 222 224 222 218 215 218 221 219 217
202 203 203 200 201 202 196 193 194 195 196 198 201 206 211 213 215 210 205 203 201 199 201 205 205 203 204 206 203 191 178 176 179 177 177 182 187 191 200 209 215 218 218 221 219 214 212 223 228 201 178 181 191 198 200 195 203 204 209 217 217 221 222 215 211 215 218 217 221 222 228 234 226 219 225 227 225 222 221 222 223 223 220 218 218 219 219 219
199 203 203 203 207 207 201 195 190 191 194 196 201 207 211 213 214 210 204 201 199 198 199 201 202 202 203 205 204 192 182 181 179 175 179 187 196 202 202 203 213 218 218 221 217 213 218 225 226 202 179 177 193 201 202 197 200 205 211 217 215 217 218 217 213 213 215 216 219 221 230 234 219 212 221 224 226 226 223 222 224 225 223 221 221 221 220 220
197 202 202 199 202 205 203 197 189 189 191 193 200 205 209 212 212 207 201 198 197 196 197 199 200 202 202 207 209 197 188 183 178 180 185 189 198 209 213 204 203 211 215 217 213 214 222 224 223 203 180 177 197 201 203 203 200 205 214 219 218 216 215 216 215 214 215 215 219 221 227 230 215 208 211 214 220 225 226 225 225 228 227 224 222 223 224 223
196 200 199 194 194 199 200 196 190 190 191 194 201 203 208 211 208 202 196 195 195 194 196 198 200 202 202 208 208 195 186 181 180 184 186 189 196 204 215 213 203 207 210 209 208 212 219 220 214 199 181 180 195 200 211 214 207 207 213 216 220 219 216 215 215 215 217 218 221 225 228 229 221 213 210 212 219 226 230 229 227 228 231 230 225 222 225 226
195 197 199 198 195 193 193 192 191 192 191 195 201 203 206 207 201 193 188 192 193 192 196 199 198 199 203 207 200 189 184 180 181 185 187 189 190 197 210 217 212 208 205 203 207 209 213 215 204 191 183 184 192 203 214 214 209 210 211 211 212 217 219 220 219 218 220 223 225 228 229 229 230 228 222 221 225 228 232 233 232 230 229 232 232 228 227 228
196 196 198 199 194 191 191 191 193 193 192 194 197 199 201 198 192 186 186 191 191 189 193 196 195 196 202 204 197 190 188 181 180 185 189 191 185 188 198 208 213 213 207 202 203 207 208 204 194 189 188 188 193 207 213 211 212 218 219 214 211 212 220 223 224 224 225 228 230 233 235 233 233 234 232 231 231 229 226 227 231 234 231 229 233 234 233 231
193 192 194 195 192 190 189 191 194 194 195 196 195 196 197 191 183 182 190 194 192 191 195 195 194 195 199 200 194 189 182 176 181 187 187 191 190 183 185 198 208 216 217 206 202 204 200 193 190 192 192 190 196 212 214 206 202 216 225 225 220 216 222 224 225 228 230 233 235 237 241 240 236 236 237 239 239 235 230 229 231 236 237 232 231 234 236 235
189 187 189 190 190 188 187 191 195 197 200 203 205 204 200 194 187 186 189 190 191 196 200 198 196 197 199 198 196 190 181 174 178 190 188 186 188 182 182 197 210 212 211 206 200 194 191 194 195 194 192 193 203 214 216 205 189 202 228 236 227 220 221 223 224 227 230 235 238 240 243 243 241 239 240 241 243 242 240 240 239 238 240 238 233 232 234 235
187 185 189 190 188 186 187 191 196 198 201 206 210 210 205 200 194 190 188 185 187 196 202 199 197 200 200 195 192 192 191 182 176 186 191 184 183 185 187 198 213 211 191 183 183 182 189 201 201 194 191 195 209 217 219 213 204 215 240 246 234 222 219 223 225 226 229 235 239 241 244 246 245 242 241 242 244 245 246 246 243 240 241 240 238 235 233 234
185 186 189 189 187 186 188 192 196 199 202 205 208 209 207 205 199 192 189 183 181 192 199 197 195 198 197 190 186 189 195 196 187 185 189 188 186 189 194 197 205 200 182 176 178 184 196 206 203 193 190 197 207 212 217 220 218 225 240 247 239 224 219 224 227 229 232 235 239 241 247 250 249 246 244 244 246 247 248 248 243 237 238 240 240 238 235 234
183 187 187 186 185 184 189 191 195 199 203 205 205 205 205 205 200 193 189 184 180 187 194 194 193 194 194 190 185 188 193 200 201 196 193 191 187 189 196 199 197 191 187 185 184 191 200 205 199 190 192 204 208 206 212 223 226 228 233 238 238 224 220 225 228 231 235 237 241 244 251 254 252 251 249 246 248 249 247 248 244 235 234 238 240 239 236 236
181 185 182 182 183 184 187 189 193 198 199 200 202 203 204 201 196 190 187 184 181 184 187 190 191 190 192 188 182 187 192 197 203 206 204 195 190 190 192 196 197 193 193 190 190 202 205 202 194 187 191 205 208 206 206 222 232 231 231 228 224 222 221 224 226 228 231 233 239 239 246 259 255 253 252 246 245 248 247 247 246 239 235 236 239 240 239 238
182 183 181 181 184 183 185 187 192 196 194 195 199 199 198 195 190 185 185 181 178 183 186 190 191 189 189 185 177 177 187 195 198 205 207 197 195 195 189 192 197 198 197 190 194 209 207 204 196 188 193 202 206 208 202 215 234 232 232 225 216 218 218 221 222 222 225 230 239 235 231 252 258 252 249 246 244 245 246 246 245 241 237 236 236 239 239 239
182 181 180 182 185 185 185 187 189 192 191 191 193 191 189 187 183 179 176 170 179 188 187 187 189 189 186 186 187 183 186 193 191 197 202 195 194 196 192 192 194 196 197 190 195 206 203 203 197 191 199 204 206 209 203 211 232 232 233 230 226 229 224 223 224 227 234 237 240 235 230 243 256 249 237 235 239 240 241 242 241 238 236 235 234 236 238 239
180 178 181 184 186 186 189 189 187 188 188 188 187 184 181 180 177 174 169 148 187 191 189 188 188 188 183 187 196 198 200 198 191 193 197 194 194 196 198 198 196 194 194 193 195 199 196 197 195 193 201 207 208 210 207 214 230 231 231 236 238 236 231 227 226 231 236 236 232 228 224 232 257 253 242 233 234 234 236 237 238 238 236 236 237 237 238 240
179 179 183 184 182 183 188 191 187 183 182 184 183 177 174 170 166 168 170 171 183 186 191 191 188 187 185 189 197 201 205 203 199 197 193 194 196 196 198 200 199 196 196 199 199 197 194 192 194 199 205 208 207 209 209 215 228 230 227 234 236 229 227 225 229 234 230 230 232 228 221 221 261 259 248 239 236 237 238 237 235 234 233 234 236 237 239 240
180 181 183 182 180 180 184 187 185 179 179 180 174 167 162 158 159 162 172 188 179 182 189 190 189 187 187 192 194 200 206 204 203 197 191 194 197 196 197 197 198 199 200 203 203 205 200 192 195 204 208 206 204 206 210 217 230 233 228 229 226 219 221 223 227 227 225 235 235 231 225 221 254 267 253 246 244 244 246 246 243 238 235 235 236 237 239 241
182 183 183 182 181 181 182 182 178 176 177 172 163 157 153 153 161 162 172 184 177 175 182 187 190 188 190 195 193 194 202 204 203 196 192 194 196 196 194 194 195 196 199 198 199 205 204 198 201 205 204 203 203 206 213 222 229 228 226 222 214 206 209 218 221 213 219 251 230 229 227 219 226 249 254 249 245 246 248 249 250 247 244 243 242 241 240 241
184 184 181 181 181 182 182 179 173 170 167 163 159 157 154 154 166 170 169 177 177 179 183 188 191 190 192 196 194 191 193 197 198 197 195 194 195 198 196 194 193 189 189 190 192 199 200 202 206 206 206 204 205 209 215 223 221 218 218 212 202 181 174 206 214 205 224 240 218 222 222 221 234 242 242 234 235 244 246 246 247 246 245 245 243 241 240 240
184 180 178 180 181 182 180 174 170 165 158 156 157 159 157 156 174 184 175 175 187 191 189 191 192 192 192 191 191 190 190 194 193 194 198 196 196 200 200 199 197 192 188 186 188 189 191 202 207 207 210 208 208 213 215 216 211 210 211 205 198 171 102 209 238 269 248 236 220 215 216 233 247 253 252 245 241 249 251 250 248 243 241 241 239 237 236 237
179 178 178 180 181 180 174 169 169 163 156 155 157 158 160 164 180 184 181 180 186 190 190 190 187 188 191 191 190 189 186 190 192 192 196 198 198 201 202 202 201 200 197 189 189 188 185 198 204 204 209 210 211 216 220 222 219 218 217 214 211 203 182 199 210 212 219 211 208 202 206 237 236 249 260 252 242 244 248 249 244 238 239 242 241 237 235 236
175 178 179 179 179 175 169 167 167 162 158 160 160 161 169 181 183 184 186 183 179 181 187 189 185 182 186 190 191 191 188 187 189 191 195 199 201 202 203 203 201 202 202 195 193 194 194 200 201 201 206 209 211 214 219 225 225 223 217 214 218 215 212 213 209 217 213 185 200 202 211 233 228 235 251 246 238 236 241 245 241 241 243 243 244 242 240 239
174 179 179 178 175 170 167 168 166 161 162 164 163 169 183 189 188 186 187 185 181 178 175 177 181 178 177 185 190 192 194 192 189 191 197 202 206 206 206 205 202 203 204 201 195 193 198 203 201 203 207 207 208 211 214 218 218 215 208 209 215 214 215 221 218 219 210 199 224 215 225 239 244 250 245 237 238 232 232 240 242 243 243 241 242 244 242 241
176 178 178 175 170 167 168 169 166 163 165 168 170 181 189 190 191 189 187 185 181 178 172 168 176 178 176 183 189 191 193 193 190 192 196 199 206 210 209 207 206 205 206 207 203 198 200 199 200 206 209 208 208 209 213 217 218 210 206 210 214 212 217 222 217 191 169 220 236 217 229 239 239 246 246 237 237 235 229 233 239 243 244 241 241 241 242 244
176 175 175 170 165 166 168 167 166 165 166 172 179 188 190 189 191 191 189 186 180 181 179 172 177 184 182 182 186 190 191 190 190 192 195 197 205 211 209 208 208 207 208 210 210 208 205 199 198 206 208 207 207 208 209 214 218 216 213 212 210 209 215 214 209 200 196 236 264 227 230 236 233 236 244 239 240 243 241 242 245 246 249 249 245 243 246 249
173 171 170 166 163 166 166 165 167 167 170 178 184 188 190 190 194 194 192 189 183 183 184 180 180 186 187 186 185 187 191 193 191 191 195 198 203 209 209 209 209 208 209 210 213 214 210 204 200 203 206 205 203 205 206 206 208 212 214 212 210 213 216 212 212 213 198 204 243 238 228 233 236 241 247 248 249 253 253 253 251 245 247 254 249 242 242 241
173 169 165 165 164 164 164 164 167 170 176 184 186 186 189 190 192 194 194 194 189 185 188 188 185 185 187 189 188 188 192 195 195 195 198 201 202 205 209 210 210 210 208 209 213 215 212 211 207 199 199 201 202 206 210 210 208 208 210 208 207 211 212 215 220 221 219 209 194 203 251 248 246 253 259 259 257 256 256 256 251 244 246 252 245 233 229 230
174 168 163 164 164 163 164 166 171 175 181 186 185 185 188 188 187 188 192 198 195 190 192 194 192 190 188 189 191 192 192 194 199 200 201 204 204 205 208 209 210 210 207 204 208 211 209 211 209 198 195 201 206 208 211 216 219 221 221 217 214 215 213 212 223 223 227 235 223 198 257 259 255 262 264 258 249 243 242 243 243 242 244 247 240 226 219 224
171 168 165 165 165 165 168 171 175 179 183 185 185 185 187 187 187 185 186 195 196 192 192 196 197 195 193 194 194 194 194 196 200 203 205 208 208 208 210 210 209 210 209 205 205 206 208 209 206 200 202 206 209 209 208 213 219 223 226 226 223 220 216 211 212 218 220 229 236 240 267 260 253 255 250 240 231 229 231 236 242 247 247 245 240 228 219 220
169 167 166 166 166 168 171 174 177 181 183 185 185 185 185 185 186 185 183 188 193 191 190 194 197 197 198 198 196 196 197 197 200 205 208 209 210 211 212 212 210 210 211 208 203 201 206 208 199 189 198 206 207 209 209 210 214 217 220 224 224 222 222 221 224 228 222 221 224 222 246 242 236 227 207 198 211 219 225 241 253 258 254 249 242 233 225 223
169 166 166 167 169 172 176 177 179 182 184 184 184 185 185 186 187 187 184 185 189 190 191 194 197 200 200 200 200 201 200 198 201 206 208 210 211 210 211 213 211 209 211 212 206 202 202 202 192 173 159 199 208 212 211 209 211 214 216 219 222 225 227 225 227 232 236 233 225 214 232 241 239 233 214 200 221 239 253 267 272 273 265 256 247 237 231 231
169 164 166 170 172 176 181 182 182 183 183 182 185 186 185 184 187 189 187 185 188 191 192 194 196 199 200 200 201 204 204 203 203 205 208 212 212 210 210 212 212 212 215 216 214 209 205 201 199 191 170 185 203 208 210 207 207 212 216 218 221 224 224 225 227 228 231 238 231 226 241 249 248 245 240 240 249 255 263 268 269 270 264 256 251 244 239 237
171 165 167 171 176 181 184 185 186 186 184 183 185 188 186 182 182 186 187 186 189 192 193 195 196 196 198 199 199 202 206 206 206 207 208 210 212 212 211 210 210 213 215 216 215 213 209 208 213 213 212 214 214 213 214 212 209 214 219 221 223 226 227 227 227 225 230 237 237 238 246 252 253 251 250 250 252 256 260 259 260 264 259 252 252 252 249 243
174 174 173 172 177 185 188 188 190 190 188 187 187 188 189 185 179 180 185 188 190 191 192 195 197 194 196 199 197 200 205 207 209 212 210 211 213 213 211 211 211 211 212 213 213 211 210 212 219 224 227 229 228 228 231 228 223 224 226 225 226 228 229 228 227 231 234 233 238 244 246 250 252 252 253 253 254 256 256 254 259 259 247 245 251 254 255 251
176 181 182 179 180 186 189 190 191 192 190 189 189 189 189 188 183 180 183 188 193 193 191 193 198 200 201 200 198 197 200 204 209 213 213 212 213 211 209 208 209 210 209 209 210 210 211 215 221 225 231 235 235 236 238 238 237 236 233 231 230 229 230 230 232 238 237 233 240 248 249 251 254 255 256 255 254 252 250 253 259 246 233 242 252 251 253 256
179 181 184 186 186 188 190 190 190 191 190 189 190 191 192 192 189 186 186 187 191 196 196 195 197 201 203 204 202 200 200 202 205 209 213 213 212 212 208 204 206 210 207 206 208 208 211 218 222 226 231 235 235 236 238 240 242 241 238 238 237 235 235 236 238 242 241 241 247 252 253 255 257 258 259 257 254 248 247 253 252 238 239 252 254 245 245 253
181 181 183 188 191 192 192 192 190 190 191 191 192 194 195 195 193 191 192 193 193 196 200 200 199 199 202 206 208 208 209 211 210 210 212 212 211 213 211 208 209 208 205 206 206 206 210 215 218 222 228 231 231 232 234 236 240 241 241 241 240 239 240 240 241 241 240 242 248 249 250 253 253 254 257 258 255 252 253 255 249 240 248 257 253 243 243 251
182 184 184 188 192 194 194 193 193 192 192 193 195 196 197 197 197 195 196 200 202 202 203 203 200 199 201 206 212 215 216 219 222 223 223 221 221 220 217 217 216 211 206 206 206 208 211 210 212 217 220 225 228 229 231 232 235 239 240 239 237 236 237 238 240 241 240 243 247 246 247 249 250 252 258 259 258 257 259 260 254 247 252 257 252 243 243 249
182 186 186 187 191 194 195 194 194 194 196 197 198 198 199 199 199 198 197 200 205 208 209 207 203 201 202 207 213 216 217 221 226 232 234 236 237 234 228 226 226 222 215 212 210 211 212 211 211 211 212 220 225 226 230 231 233 237 237 237 237 237 239 241 243 245 244 245 247 246 247 250 253 257 260 260 260 261 261 262 260 256 257 259 255 246 242 246
Height
3018 3023 3030 3033 3038 3043 3047 3052 3056 3060 3064 3067 3071 3076 3080 3085 3088 3092 3095 3099 3103 3106 3108 3110 3112 3114 3115 3117 3118 3120 3122 3124 3126 3129 3132 3135 3139 3142 3144 3147 3149 3151 3154 3157 3160 3163 3167 3170 3172 3173 3174 3176 3178 3179 3181 3182 3184 3185 3186 3186 3186 3188 3189 3189 3190 3191 3191 3191 3192 3192 3193 3194 3195 3195 3196 3197 3198 3199 3200 3200 3201 3202 3203 3204 3205 3206 3206 3207
3014 3018 3025 3030 3033 3038 3044 3049 3053 3057 3060 3064 3068 3072 3077 3081 3086 3089 3093 3097 3100 3103 3106 3108 3110 3112 3114 3115 3117 3119 3121 3123 3124 3127 3131 3134 3137 3139 3142 3145 3148 3150 3152 3155 3158 3161 3165 3168 3170 3171 3173 3175 3176 3178 3179 3181 3182 3184 3185 3185 3186 3188 3189 3188 3189 3190 3190 3191 3191 3192 3193 3194 3195 3195 3196 3196 3197 3198 3199 3200 3200 3202 3203 3204 3205 3206 3206 3207
3010 3014 3021 3025 3029 3033 3040 3046 3050 3054 3058 3061 3065 3069 3074 3078 3083 3087 3090 3094 3098 3101 3104 3106 3109 3111 3113 3114 3116 3118 3120 3122 3122 3125 3130 3133 3135 3138 3140 3143 3146 3148 3150 3153 3156 3159 3163 3166 3168 3170 3172 3174 3176 3177 3178 3179 3181 3182 3183 3184 3186 3187 3188 3188 3188 3189 3190 3190 3191 3192 3192 3193 3194 3195 3195 3196 3197 3198 3198 3199 3200 3201 3203 3204 3204 3205 3206 3206
3005 3010 3017 3021 3025 3030 3036 3043 3047 3051 3055 3059 3063 3066 3071 3076 3080 3084 3088 3092 3096 3099 3102 3105 3107 3109 3111 3112 3114 3116 3120 3120 3119 3124 3130 3131 3134 3136 3138 3141 3144 3147 3149 3151 3155 3158 3161 3164 3166 3168 3170 3172 3175 3176 3176 3178 3180 3181 3182 3183 3186 3187 3187 3187 3188 3188 3189 3190 3190 3191 3191 3192 3193 3194 3194 3195 3196 3196 3198 3199 3200 3201 3202 3203 3204 3205 3205 3206
3000 3006 3013 3017 3021 3026 3032 3038 3043 3048 3052 3056 3060 3063 3068 3073 3077 3081 3085 3090 3093 3097 3100 3103 3105 3108 3109 3110 3112 3114 3118 3117 3116 3124 3128 3130 3133 3135 3137 3140 3142 3145 3147 3149 3152 3156 3158 3162 3164 3166 3168 3171 3174 3174 3175 3178 3179 3180 3181 3183 3185 3186 3187 3187 3187 3188 3188 3189 3189 3189 3190 3192 3192 3193 3193 3194 3195 3196 3197 3198 3199 3200 3202 3202 3203 3204 3205 3206
2996 3002 3009 3014 3018 3023 3030 3035 3040 3044 3048 3052 3057 3060 3065 3070 3074 3079 3083 3087 3091 3095 3098 3101 3104 3106 3107 3108 3110 3112 3114 3114 3116 3122 3125 3127 3131 3132 3135 3137 3140 3143 3145 3148 3150 3153 3156 3159 3162 3165 3167 3169 3172 3173 3175 3177 3178 3178 3180 3182 3184 3185 3186 3186 3186 3186 3187 3188 3188 3188 3189 3191 3191 3192 3192 3193 3194 3195 3196 3198 3199 3199 3200 3201 3202 3203 3204 3205
2993 2999 3004 3010 3015 3020 3027 3032 3036 3041 3045 3049 3053 3057 3063 3067 3072 3076 3081 3085 3089 3093 3096 3100 3102 3104 3105 3106 3108 3110 3112 3114 3117 3120 3122 3126 3128 3130 3133 3135 3138 3141 3143 3146 3148 3151 3154 3157 3160 3162 3165 3167 3171 3173 3175 3176 3177 3177 3179 3181 3182 3184 3185 3185 3185 3185 3186 3187 3187 3187 3188 3189 3190 3191 3191 3192 3193 3193 3195 3196 3198 3198 3199 3200 3201 3202 3203 3204
2989 2996 3000 3006 3012 3017 3023 3028 3034 3039 3043 3047 3051 3055 3060 3064 3069 3074 3079 3083 3087 3091 3095 3098 3100 3102 3104 3105 3107 3108 3110 3114 3117 3118 3120 3125 3127 3130 3132 3133 3136 3139 3142 3144 3147 3150 3152 3154 3157 3160 3162 3165 3169 3170 3172 3174 3174 3175 3177 3179 3180 3182 3183 3184 3185 3185 3185 3186 3186 3186 3187 3188 3189 3190 3190 3191 3191 3192 3194 3195 3197 3198 3198 3199 3200 3201 3202 3203
2985 2992 2998 3004 3009 3014 3020 3026 3032 3036 3040 3045 3049 3053 3057 3062 3067 3072 3077 3081 3085 3089 3093 3096 3098 3101 3102 3104 3105 3107 3110 3114 3116 3118 3121 3125 3127 3129 3131 3132 3134 3137 3140 3143 3145 3148 3150 3152 3155 3157 3159 3162 3166 3168 3169 3171 3172 3173 3176 3177 3179 3180 3182 3183 3184 3184 3184 3185 3185 3185 3186 3186 3187 3188 3189 3190 3190 3191 3192 3194 3195 3197 3197 3198 3199 3200 3201 3202
2980 2989 2995 3001 3007 3012 3017 3022 3028 3033 3038 3042 3046 3050 3055 3059 3064 3069 3074 3078 3082 3087 3092 3094 3096 3098 3100 3102 3103 3106 3111 3114 3115 3117 3120 3124 3126 3127 3129 3130 3133 3135 3138 3141 3144 3146 3148 3151 3152 3153 3156 3160 3166 3168 3168 3169 3171 3173 3175 3176 3177 3179 3180 3181 3182 3183 3183 3183 3184 3184 3185 3185 3186 3187 3187 3188 3189 3190 3191 3193 3194 3195 3196 3197 3198 3199 3200 3201
2975 2985 2991 2997 3003 3008 3013 3019 3024 3029 3034 3038 3042 3048 3053 3057 3061 3066 3071 3075 3080 3086 3090 3092 3094 3096 3098 3100 3102 3106 3111 3112 3114 3117 3119 3122 3123 3125 3127 3129 3132 3134 3136 3139 3142 3144 3146 3148 3149 3151 3155 3159 3163 3166 3167 3167 3169 3171 3173 3175 3175 3177 3178 3179 3181 3181 3182 3182 3182 3184 3184 3184 3184 3186 3186 3187 3189 3190 3190 3191 3193 3194 3195 3196 3197 3198 3199 3200
2971 2980 2988 2994 2999 3004 3009 3015 3020 3026 3031 3035 3040 3045 3050 3054 3058 3063 3068 3073 3079 3084 3088 3090 3092 3095 3097 3099 3101 3106 3110 3111 3114 3117 3119 3121 3122 3123 3125 3128 3131 3132 3135 3138 3140 3142 3144 3145 3146 3150 3154 3157 3160 3164 3165 3166 3167 3169 3171 3172 3173 3175 3176 3177 3179 3180 3180 3181 3181 3183 3183 3182 3183 3184 3186 3186 3188 3189 3189 3190 3191 3192 3194 3195 3195 3196 3197 3198
2967 2976 2985 2990 2995 3000 3004 3011 3018 3023 3028 3032 3037 3042 3047 3052 3056 3061 3066 3071 3076 3082 3085 3088 3091 3093 3096 3097 3100 3105 3108 3111 3113 3116 3118 3120 3121 3122 3124 3127 3129 3131 3133 3136 3138 3141 3142 3142 3144 3149 3153 3156 3159 3161 3163 3164 3165 3167 3169 3170 3171 3173 3173 3175 3177 3178 3179 3179 3180 3181 3181 3180 3182 3184 3185 3186 3187 3187 3188 3189 3190 3191 3192 3193 3194 3195 3196 3197
2965 2973 2981 2985 2991 2996 3001 3008 3014 3019 3024 3029 3034 3040 3045 3049 3054 3058 3064 3069 3074 3079 3083 3086 3090 3092 3094 3096 3099 3103 3106 3109 3112 3114 3116 3118 3120 3121 3123 3125 3127 3129 3132 3134 3136 3139 3140 3141 3145 3149 3151 3155 3158 3159 3161 3162 3164 3166 3167 3168 3169 3170 3171 3173 3174 3176 3177 3178 3179 3180 3179 3179 3181 3182 3183 3184 3185 3186 3187 3188 3188 3190 3191 3192 3193 3194 3195 3196
2962 2970 2978 2983 2988 2993 2999 3006 3011 3015 3021 3026 3031 3037 3042 3047 3051 3056 3062 3067 3072 3077 3081 3085 3088 3090 3092 3094 3097 3101 3104 3106 3109 3112 3115 3117 3119 3120 3122 3124 3125 3127 3130 3132 3135 3137 3138 3140 3144 3148 3150 3154 3157 3158 3159 3160 3161 3164 3165 3165 3165 3167 3170 3171 3173 3174 3175 3176 3178 3178 3178 3178 3180 3181 3181 3182 3183 3184 3185 3186 3187 3188 3189 3190 3191 3193 3194 3194
2959 2967 2976 2981 2984 2990 2997 3003 3007 3012 3018 3023 3029 3034 3040 3045 3049 3054 3059 3065 3070 3075 3079 3082 3085 3088 3090 3092 3095 3098 3102 3104 3107 3110 3113 3116 3118 3119 3121 3122 3124 3125 3127 3131 3133 3134 3136 3140 3144 3146 3148 3151 3154 3156 3158 3158 3159 3160 3161 3162 3164 3166 3168 3169 3171 3172 3174 3175 3176 3177 3177 3177 3179 3180 3180 3181 3182 3183 3184 3185 3186 3187 3188 3189 3190 3191 3192 3193
2956 2964 2972 2977 2981 2986 2994 3000 3003 3009 3014 3019 3025 3031 3037 3042 3047 3052 3057 3062 3067 3072 3077 3080 3083 3087 3089 3090 3092 3096 3099 3102 3105 3108 3111 3114 3116 3118 3119 3121 3122 3123 3126 3129 3131 3133 3135 3138 3142 3145 3147 3148 3152 3155 3155 3154 3155 3157 3158 3161 3163 3165 3166 3167 3168 3170 3172 3173 3174 3175 3175 3176 3177 3178 3179 3180 3180 3181 3182 3183 3184 3185 3186 3187 3188 3189 3190 3191
2953 2961 2967 2973 2978 2984 2991 2996 3000 3005 3011 3016 3023 3029 3034 3040 3045 3050 3054 3059 3064 3071 3076 3078 3081 3085 3085 3086 3089 3094 3098 3101 3104 3107 3110 3113 3115 3117 3118 3120 3121 3122 3125 3127 3129 3131 3133 3136 3140 3144 3145 3146 3148 3151 3150 3150 3153 3155 3157 3159 3162 3163 3164 3165 3167 3169 3170 3171 3172 3172 3173 3175 3176 3177 3177 3178 3179 3180 3181 3182 3183 3183 3184 3185 3186 3187 3188 3189
2949 2957 2963 2969 2975 2982 2987 2992 2996 3001 3007 3013 3020 3026 3032 3038 3044 3050 3052 3054 3058 3064 3067 3069 3073 3076 3078 3082 3088 3093 3097 3101 3103 3106 3109 3111 3113 3116 3117 3119 3120 3121 3123 3124 3126 3128 3130 3134 3138 3139 3140 3141 3145 3147 3148 3151 3154 3156 3157 3159 3160 3162 3163 3164 3166 3168 3169 3170 3170 3170 3171 3173 3174 3175 3176 3177 3178 3178 3179 3180 3180 3181 3182 3183 3184 3185 3186 3187
2945 2953 2961 2966 2973 2979 2983 2987 2992 2997 3003 3007 3013 3018 3024 3030 3038 3045 3048 3052 3058 3061 3062 3065 3069 3072 3075 3079 3085 3089 3094 3098 3102 3105 3108 3111 3112 3114 3116 3117 3119 3120 3121 3121 3123 3125 3128 3131 3131 3131 3135 3139 3144 3147 3150 3153 3155 3156 3157 3158 3159 3161 3162 3163 3165 3166 3167 3167 3167 3169 3170 3171 3172 3173 3175 3176 3176 3176 3177 3178 3178 3179 3180 3181 3183 3184 3184 3185
2942 2951 2957 2963 2969 2975 2979 2984 2989 2995 3000 3004 3008 3012 3016 3021 3027 3032 3037 3047 3058 3062 3063 3066 3070 3072 3075 3079 3083 3088 3091 3095 3101 3104 3106 3109 3111 3113 3114 3115 3116 3117 3119 3121 3122 3125 3127 3126 3126 3130 3136 3141 3145 3148 3150 3152 3153 3154 3156 3157 3158 3159 3160 3162 3163 3164 3165 3165 3166 3167 3167 3167 3170 3171 3173 3173 3173 3173 3175 3176 3177 3178 3178 3179 3180 3182 3183 3184
2940 2947 2953 2959 2966 2971 2976 2981 2987 2993 2999 3004 3009 3014 3018 3022 3024 3027 3031 3039 3050 3057 3060 3065 3070 3072 3076 3080 3085 3089 3091 3093 3098 3102 3104 3107 3109 3111 3112 3113 3115 3116 3118 3120 3121 3123 3124 3123 3126 3132 3137 3142 3146 3148 3150 3151 3152 3153 3155 3155 3156 3157 3159 3160 3161 3162 3163 3163 3164 3165 3164 3164 3167 3169 3169 3169 3169 3171 3172 3173 3175 3176 3176 3177 3177 3179 3181 3182
2938 2944 2950 2956 2962 2968 2974 2980 2985 2991 2996 3001 3008 3014 3020 3025 3027 3031 3036 3040 3046 3051 3056 3062 3066 3069 3074 3078 3082 3086 3090 3091 3094 3097 3101 3105 3107 3110 3111 3112 3114 3115 3117 3118 3119 3120 3121 3122 3127 3133 3138 3142 3145 3147 3148 3150 3150 3151 3153 3154 3153 3155 3157 3157 3159 3160 3161 3162 3162 3162 3162 3162 3164 3165 3165 3166 3167 3168 3170 3171 3172 3173 3174 3174 3175 3177 3178 3179
2935 2942 2948 2954 2960 2966 2972 2978 2984 2989 2995 3001 3007 3013 3018 3024 3028 3034 3040 3044 3048 3051 3056 3061 3064 3068 3072 3076 3080 3084 3088 3091 3093 3096 3099 3102 3105 3109 3110 3112 3114 3115 3116 3117 3119 3120 3122 3124 3129 3134 3138 3140 3143 3145 3147 3148 3148 3149 3150 3152 3152 3153 3154 3155 3157 3159 3159 3160 3160 3161 3161 3158 3159 3161 3161 3164 3165 3164 3166 3168 3169 3170 3171 3172 3173 3174 3175 3176
2934 2939 2945 2952 2957 2963 2970 2976 2981 2986 2993 3000 3005 3011 3017 3022 3029 3035 3040 3045 3050 3053 3057 3061 3064 3068 3072 3077 3081 3084 3087 3091 3094 3096 3098 3101 3104 3106 3109 3112 3113 3114 3115 3118 3120 3122 3124 3127 3130 3133 3136 3139 3141 3142 3144 3146 3147 3147 3148 3150 3151 3152 3153 3154 3156 3157 3157 3157 3157 3160 3159 3154 3155 3157 3158 3161 3162 3160 3162 3164 3165 3167 3169 3169 3170 3171 3173 3174
2932 2937 2943 2949 2955 2961 2967 2971 2977 2984 2990 2997 3002 3009 3016 3022 3029 3035 3039 3045 3049 3051 3054 3059 3063 3067 3072 3076 3080 3084 3088 3090 3093 3096 3098 3101 3103 3105 3108 3110 3112 3113 3116 3119 3121 3122 3124 3127 3130 3132 3135 3137 3139 3140 3142 3145 3146 3146 3146 3148 3150 3151 3152 3153 3154 3154 3154 3154 3155 3158 3157 3152 3151 3153 3155 3156 3157 3157 3159 3160 3162 3164 3165 3166 3168 3169 3170 3171
2929 2935 2941 2947 2952 2957 2960 2965 2973 2980 2985 2992 2999 3007 3014 3020 3027 3032 3038 3047 3049 3048 3051 3056 3061 3065 3070 3075 3079 3082 3084 3086 3091 3094 3096 3099 3102 3104 3107 3108 3110 3113 3115 3118 3119 3120 3122 3125 3128 3131 3134 3136 3137 3138 3140 3143 3144 3144 3145 3147 3149 3149 3151 3151 3152 3153 3152 3153 3154 3154 3154 3153 3149 3148 3152 3153 3153 3154 3155 3156 3159 3161 3162 3163 3165 3166 3167 3168
2928 2934 2940 2945 2951 2955 2959 2963 2969 2975 2983 2990 2996 3004 3011 3018 3025 3029 3035 3044 3045 3044 3048 3053 3058 3063 3069 3073 3077 3080 3081 3084 3088 3091 3095 3099 3100 3103 3105 3107 3109 3112 3114 3115 3116 3118 3121 3124 3126 3129 3131 3133 3134 3136 3139 3141 3142 3143 3145 3146 3147 3148 3149 3150 3151 3151 3151 3151 3151 3150 3152 3152 3145 3144 3150 3151 3150 3151 3152 3154 3156 3157 3159 3160 3162 3163 3164 3165
2927 2933 2939 2945 2950 2955 2961 2966 2969 2975 2983 2989 2995 3003 3010 3016 3023 3029 3033 3038 3038 3039 3045 3051 3055 3061 3066 3070 3073 3076 3079 3083 3085 3088 3093 3097 3098 3101 3104 3106 3109 3111 3112 3114 3115 3118 3120 3123 3126 3128 3129 3130 3133 3137 3139 3140 3141 3142 3145 3145 3146 3147 3148 3149 3150 3149 3150 3149 3147 3148 3150 3149 3144 3141 3146 3147 3146 3148 3150 3152 3154 3155 3156 3157 3158 3160 3160 3161
2926 2932 2938 2943 2946 2951 2958 2965 2972 2978 2983 2987 2995 3002 3010 3016 3021 3026 3031 3031 3032 3037 3042 3048 3052 3056 3061 3065 3068 3073 3076 3079 3082 3086 3090 3094 3096 3100 3103 3106 3108 3110 3111 3113 3116 3118 3119 3122 3124 3125 3127 3129 3133 3136 3137 3138 3140 3141 3143 3144 3146 3146 3146 3148 3148 3148 3149 3146 3144 3146 3147 3147 3144 3139 3141 3144 3144 3146 3148 3149 3151 3152 3153 3154 3155 3156 3157 3158
2925 2931 2936 2940 2943 2948 2953 2960 2969 2977 2983 2989 2997 3002 3008 3014 3018 3023 3026 3025 3029 3035 3038 3043 3049 3053 3056 3059 3062 3068 3072 3076 3080 3083 3086 3089 3093 3096 3100 3102 3105 3108 3109 3110 3113 3115 3117 3120 3121 3122 3125 3128 3131 3133 3135 3137 3138 3140 3141 3143 3144 3145 3145 3146 3146 3147 3146 3143 3142 3144 3145 3146 3143 3138 3139 3141 3142 3144 3145 3146 3148 3149 3150 3151 3152 3153 3154 3155
2924 2929 2935 2939 2943 2947 2953 2959 2966 2973 2981 2989 2997 3001 3005 3012 3017 3019 3020 3023 3027 3029 3032 3037 3043 3048 3052 3056 3059 3063 3068 3072 3076 3080 3082 3085 3088 3092 3094 3096 3098 3102 3104 3106 3109 3112 3115 3117 3118 3120 3123 3126 3128 3131 3133 3134 3135 3137 3138 3140 3142 3143 3144 3145 3145 3145 3143 3141 3141 3142 3144 3142 3138 3136 3138 3139 3140 3142 3143 3144 3145 3146 3147 3148 3149 3150 3151 3152
2923 2929 2934 2938 2942 2947 2954 2963 2968 2973 2980 2987 2993 2998 3003 3008 3012 3013 3015 3018 3021 3023 3028 3033 3038 3044 3049 3053 3057 3061 3066 3070 3073 3077 3081 3083 3087 3090 3092 3094 3096 3097 3098 3102 3105 3109 3113 3114 3115 3117 3119 3122 3125 3127 3129 3130 3132 3134 3135 3137 3138 3140 3143 3144 3144 3143 3141 3140 3140 3142 3143 3139 3134 3134 3136 3137 3139 3140 3140 3141 3143 3143 3144 3145 3146 3147 3147 3148
2923 2928 2932 2936 2941 2948 2956 2964 2969 2974 2980 2985 2990 2996 3001 3004 3006 3008 3011 3014 3016 3021 3026 3031 3036 3043 3048 3051 3054 3058 3063 3068 3072 3075 3078 3082 3084 3086 3088 3091 3094 3096 3098 3101 3102 3104 3107 3108 3110 3113 3116 3119 3122 3124 3127 3129 3131 3132 3133 3135 3136 3136 3139 3141 3141 3140 3139 3138 3139 3141 3140 3135 3132 3133 3134 3135 3137 3137 3136 3138 3140 3141 3142 3142 3143 3143 3144 3145
2923 2927 2931 2935 2941 2949 2957 2964 2969 2974 2980 2984 2989 2994 2995 2996 2998 3001 3005 3009 3013 3018 3024 3029 3034 3041 3047 3051 3054 3057 3060 3065 3070 3073 3075 3076 3077 3078 3082 3085 3089 3093 3095 3097 3099 3102 3104 3105 3107 3111 3114 3116 3120 3123 3126 3129 3130 3130 3132 3133 3133 3134 3136 3137 3137 3137 3136 3137 3137 3137 3134 3130 3130 3131 3132 3133 3133 3133 3134 3135 3136 3138 3139 3140 3141 3141 3142 3142
2923 2927 2931 2935 2941 2949 2956 2962 2968 2974 2978 2981 2986 2990 2989 2989 2992 2995 3000 3005 3008 3012 3019 3029 3034 3037 3044 3049 3052 3056 3059 3062 3067 3070 3072 3074 3076 3077 3079 3082 3085 3088 3090 3093 3096 3099 3102 3104 3107 3110 3113 3115 3118 3120 3123 3125 3126 3128 3129 3129 3131 3133 3135 3135 3136 3135 3136 3136 3134 3132 3129 3128 3129 3130 3130 3131 3131 3131 3132 3132 3134 3135 3136 3137 3138 3139 3139 3140
2918 2923 2929 2935 2942 2949 2954 2962 2968 2973 2978 2981 2981 2982 2984 2988 2991 2995 2999 3004 3007 3010 3015 3023 3029 3032 3036 3040 3045 3049 3054 3059 3063 3064 3067 3071 3073 3073 3076 3080 3083 3085 3088 3092 3094 3096 3100 3103 3106 3108 3111 3113 3116 3119 3121 3122 3124 3126 3126 3127 3130 3133 3134 3134 3134 3135 3136 3135 3131 3128 3127 3127 3128 3127 3127 3129 3130 3130 3131 3131 3132 3133 3133 3135 3136 3136 3137 3137
2915 2922 2928 2935 2942 2947 2953 2962 2968 2971 2976 2979 2979 2979 2983 2988 2992 2995 2999 3002 3007 3011 3013 3016 3023 3028 3030 3033 3039 3044 3049 3053 3057 3059 3063 3066 3066 3067 3072 3077 3081 3084 3088 3092 3094 3096 3099 3102 3105 3106 3108 3110 3113 3116 3118 3119 3122 3123 3124 3126 3129 3130 3130 3131 3132 3132 3133 3132 3129 3125 3125 3125 3125 3125 3126 3127 3128 3129 3130 3129 3130 3130 3131 3132 3133 3133 3134 3135
2915 2922 2930 2935 2941 2946 2952 2960 2965 2971 2973 2973 2973 2977 2982 2987 2991 2994 2997 3001 3005 3009 3011 3014 3018 3025 3029 3031 3035 3041 3046 3049 3052 3055 3058 3061 3062 3065 3070 3074 3078 3083 3087 3090 3093 3095 3098 3100 3102 3103 3106 3109 3110 3111 3112 3114 3117 3120 3123 3125 3126 3126 3127 3127 3128 3128 3128 3128 3126 3124 3123 3121 3121 3123 3124 3126 3127 3127 3128 3127 3128 3129 3129 3130 3130 3131 3132 3133
2915 2921 2928 2934 2939 2945 2952 2958 2963 2966 2966 2965 2969 2975 2980 2985 2989 2993 2996 3000 3003 3006 3009 3012 3015 3020 3026 3031 3034 3038 3044 3048 3050 3053 3056 3058 3062 3065 3068 3072 3076 3080 3085 3089 3092 3094 3096 3097 3098 3101 3103 3105 3105 3106 3108 3111 3114 3117 3119 3121 3122 3124 3125 3125 3125 3125 3125 3125 3124 3123 3121 3118 3119 3121 3122 3123 3125 3125 3125 3126 3126 3127 3127 3128 3128 3128 3129 3131
2915 2921 2926 2931 2938 2944 2949 2954 2957 2959 2959 2963 2970 2975 2979 2983 2987 2991 2996 2999 3002 3005 3008 3012 3014 3017 3021 3027 3032 3036 3041 3046 3049 3051 3053 3055 3058 3061 3064 3068 3073 3078 3083 3086 3089 3091 3093 3095 3096 3098 3099 3100 3101 3104 3108 3111 3113 3114 3116 3118 3120 3121 3123 3124 3123 3122 3122 3122 3121 3121 3119 3116 3118 3120 3120 3121 3122 3122 3123 3124 3124 3125 3126 3126 3126 3126 3128 3129
2914 2919 2924 2929 2935 2941 2945 2947 2950 2954 2957 2963 2969 2973 2978 2982 2985 2989 2994 2997 3001 3006 3009 3013 3015 3017 3019 3023 3028 3032 3038 3042 3045 3048 3050 3051 3054 3058 3062 3066 3071 3075 3078 3081 3084 3088 3091 3093 3094 3096 3097 3099 3101 3103 3106 3108 3110 3112 3113 3115 3116 3118 3118 3119 3118 3118 3119 3119 3119 3119 3117 3115 3117 3118 3118 3118 3119 3120 3121 3122 3123 3124 3124 3124 3125 3125 3126 3128
2914 2919 2925 2930 2935 2938 2941 2944 2949 2954 2957 2962 2969 2973 2976 2980 2984 2987 2991 2995 3000 3004 3008 3011 3014 3017 3019 3021 3025 3030 3034 3038 3041 3043 3046 3049 3053 3058 3061 3065 3068 3072 3076 3078 3081 3085 3088 3089 3091 3094 3096 3098 3099 3101 3103 3105 3106 3107 3108 3110 3112 3113 3114 3116 3116 3117 3117 3116 3117 3118 3116 3113 3116 3117 3117 3117 3118 3119 3120 3121 3122 3122 3122 3123 3123 3124 3125 3126
2913 2919 2925 2931 2936 2939 2940 2940 2943 2947 2953 2960 2967 2971 2975 2979 2982 2984 2988 2992 2997 3001 3005 3008 3011 3014 3017 3020 3024 3028 3032 3035 3038 3042 3045 3047 3051 3056 3059 3062 3066 3069 3071 3072 3076 3080 3083 3085 3087 3091 3095 3098 3099 3099 3098 3098 3099 3100 3102 3105 3107 3110 3113 3114 3115 3116 3115 3114 3115 3115 3111 3110 3114 3117 3116 3116 3117 3118 3119 3119 3120 3121 3121 3122 3122 3123 3124 3124
2911 2919 2926 2931 2935 2938 2939 2940 2941 2944 2951 2958 2963 2967 2971 2976 2980 2983 2987 2991 2996 2999 3003 3006 3010 3013 3016 3020 3024 3027 3030 3033 3036 3040 3043 3046 3050 3054 3057 3060 3064 3066 3068 3071 3074 3077 3079 3081 3082 3085 3088 3090 3090 3088 3087 3089 3093 3096 3099 3102 3105 3107 3109 3111 3112 3113 3112 3111 3112 3111 3107 3108 3112 3114 3114 3115 3116 3116 3117 3118 3118 3119 3120 3120 3121 3121 3122 3123
2908 2914 2921 2929 2936 2937 2936 2940 2944 2947 2950 2955 2960 2964 2968 2972 2978 2983 2987 2990 2994 2998 3002 3005 3009 3012 3015 3018 3022 3025 3028 3031 3034 3036 3040 3043 3047 3051 3055 3058 3061 3064 3067 3070 3073 3075 3077 3078 3079 3079 3079 3079 3080 3082 3085 3089 3094 3096 3097 3100 3102 3104 3106 3108 3110 3109 3109 3109 3108 3107 3106 3106 3108 3110 3111 3113 3114 3114 3115 3116 3116 3117 3118 3118 3119 3119 3120 3120
2907 2908 2909 2916 2926 2932 2935 2939 2942 2944 2948 2952 2955 2960 2965 2969 2974 2980 2985 2988 2992 2995 3000 3003 3006 3009 3011 3013 3017 3021 3025 3029 3032 3034 3038 3040 3044 3048 3052 3056 3059 3061 3065 3067 3070 3072 3074 3075 3076 3077 3078 3079 3082 3085 3088 3090 3092 3093 3095 3097 3099 3101 3103 3104 3104 3104 3106 3107 3103 3103 3105 3103 3102 3105 3108 3110 3111 3112 3113 3114 3114 3115 3116 3116 3116 3117 3117 3118
2904 2907 2909 2908 2909 2914 2921 2927 2933 2939 2945 2951 2954 2958 2962 2967 2971 2974 2979 2985 2989 2993 2996 3000 3003 3005 3007 3009 3014 3019 3023 3027 3030 3032 3035 3038 3041 3044 3048 3052 3055 3058 3061 3065 3067 3069 3071 3072 3073 3076 3077 3080 3083 3085 3086 3088 3089 3090 3092 3094 3096 3098 3099 3099 3100 3101 3103 3101 3098 3100 3101 3098 3097 3102 3105 3107 3109 3110 3111 3111 3112 3113 3114 3114 3114 3115 3115 3115
2899 2903 2910 2913 2910 2910 2914 2920 2929 2937 2944 2950 2953 2956 2959 2963 2967 2970 2974 2980 2985 2989 2992 2995 2998 3002 3006 3009 3012 3016 3018 3021 3024 3027 3031 3034 3038 3041 3045 3049 3052 3055 3059 3061 3064 3066 3068 3069 3071 3075 3076 3078 3081 3083 3084 3085 3086 3087 3089 3091 3093 3095 3095 3096 3097 3097 3098 3096 3095 3097 3097 3094 3095 3100 3102 3104 3106 3107 3107 3109 3110 3111 3111 3112 3112 3112 3112 3113
2897 2899 2904 2910 2913 2915 2919 2925 2931 2937 2943 2948 2950 2953 2957 2960 2964 2968 2971 2975 2979 2983 2988 2991 2995 3000 3004 3007 3010 3013 3015 3017 3020 3024 3029 3032 3036 3039 3042 3045 3048 3052 3056 3059 3061 3064 3065 3066 3069 3072 3074 3076 3078 3080 3081 3082 3083 3084 3085 3088 3090 3091 3091 3090 3089 3090 3092 3091 3091 3094 3093 3089 3092 3097 3098 3100 3101 3102 3103 3105 3107 3108 3108 3108 3109 3110 3110 3111
2895 2898 2901 2905 2910 2915 2920 2926 2932 2936 2940 2943 2945 2949 2954 2957 2961 2965 2969 2973 2976 2979 2983 2988 2994 2999 3003 3006 3008 3011 3015 3019 3022 3026 3029 3032 3035 3037 3040 3043 3046 3050 3053 3056 3059 3060 3063 3065 3066 3069 3072 3072 3074 3077 3078 3079 3080 3081 3081 3082 3082 3083 3082 3081 3082 3085 3087 3088 3089 3090 3085 3082 3088 3094 3095 3095 3097 3098 3100 3102 3103 3104 3104 3105 3106 3107 3108 3108
2895 2897 2900 2903 2907 2913 2918 2924 2931 2934 2935 2937 2941 2945 2950 2955 2960 2964 2967 2972 2977 2980 2983 2988 2993 2998 3001 3003 3006 3010 3016 3021 3024 3027 3030 3033 3036 3038 3040 3042 3045 3048 3051 3054 3056 3057 3060 3062 3063 3066 3067 3068 3071 3073 3074 3077 3078 3075 3071 3072 3075 3075 3076 3078 3080 3082 3084 3085 3085 3081 3077 3079 3088 3093 3091 3091 3092 3094 3096 3098 3099 3100 3101 3101 3103 3104 3106 3106